FW2418 Weather Reports


time (UTC)temp
C
wind
direction
speed
KPH
gust
KPH
rain 1hr
cm
rain 24hr
cm
rain mn
cm
humidity
%
barometer
mb
20260904062419 25 124 0.0 0.0 0.00 0.05 0.00 98 1011.7
20260904061418 25 124 0.0 0.0 0.00 0.05 0.00 98 1012.0
20260904060417 25 124 0.0 0.0 0.00 0.05 0.00 98 1012.0
20260904055416 25 124 0.0 0.0 0.00 0.05 0.00 98 1012.3
20260904054416 25 124 0.0 0.0 0.00 0.05 0.00 98 1012.3
20260904053415 25 124 0.0 0.0 0.00 0.05 0.00 98 1012.3
20260904052414 25 124 0.0 0.0 0.00 0.05 0.00 98 1012.3
20260904051342 25 124 0.0 0.0 0.00 0.05 0.00 98 1012.3
20260904050341 25 124 0.0 0.0 0.00 0.05 0.00 98 1012.3
20260904045341 25 124 0.0 0.0 0.00 0.05 0.00 97 1012.7
20260904044340 25 124 0.0 0.0 0.00 0.05 0.00 97 1012.7
20260904043307 25 124 0.0 0.0 0.00 0.05 0.00 97 1012.7
20260904042307 25 124 0.0 0.0 0.00 0.05 0.00 97 1012.7
20260904041306 26 124 0.0 0.0 0.00 0.05 0.00 97 1012.3
20260904040305 26 124 0.0 0.0 0.00 0.05 0.00 96 1012.3
20260904035306 26 124 0.0 1.6 0.00 0.05 0.05 96 1012.3
20260904034232 26 124 1.6 1.6 0.00 0.05 0.05 96 1012.3
20260904033231 26 124 0.0 1.6 0.00 0.05 0.05 96 1012.7
20260904032231 26 124 0.0 3.2 0.00 0.05 0.05 96 1012.3
20260904031230 26 124 1.6 4.8 0.00 0.05 0.05 96 1012.3
20260904030229 26 225 1.6 4.8 0.00 0.05 0.05 95 1012.3
20260904025228 26 119 3.2 4.8 0.00 0.05 0.05 95 1012.3
20260904024227 26 121 1.6 4.8 0.00 0.05 0.05 95 1012.3
20260904023226 26 164 1.6 6.4 0.00 0.05 0.05 95 1012.3
20260904022225 26 130 3.2 8.0 0.00 0.05 0.05 95 1012.3
20260904021224 26 186 1.6 4.8 0.00 0.05 0.05 95 1012.3
20260904020224 26 131 1.6 4.8 0.00 0.05 0.05 95 1012.3
20260904015223 26 113 1.6 4.8 0.00 0.05 0.05 95 1012.3
20260904014222 26 101 1.6 4.8 0.00 0.05 0.05 95 1012.3
20260904013221 26 128 1.6 4.8 0.00 0.05 0.05 95 1012.3
20260904012220 27 129 0.0 1.6 0.00 0.05 0.05 94 1012.0
20260904011219 27 111 1.6 1.6 0.00 0.05 0.05 94 1012.3
20260904010218 27 117 1.6 4.8 0.00 0.05 0.05 93 1012.3
20260904005146 27 124 0.0 4.8 0.00 0.05 0.05 93 1012.3
20260904004114 27 135 1.6 4.8 0.00 0.05 0.05 93 1012.0
20260904003114 27 126 1.6 4.8 0.00 0.05 0.05 93 1012.3
20260904002113 27 129 1.6 8.0 0.00 0.05 0.05 92 1012.0
20260904001112 27 124 1.6 8.0 0.00 0.05 0.05 92 1012.0
20260904000111 27 129 3.2 6.4 0.00 0.05 0.05 91 1011.7
20260903235110 27 138 1.6 3.2 0.00 0.05 0.05 91 1011.7
20260903234109 27 125 1.6 3.2 0.00 0.05 0.05 90 1011.7
20260903233109 28 129 1.6 3.2 0.00 0.05 0.05 89 1011.7
20260903232107 28 162 0.0 3.2 0.00 0.05 0.05 89 1011.7
20260903231107 28 195 0.0 6.4 0.00 0.05 0.05 88 1011.7
20260903230034 28 192 3.2 6.4 0.00 0.05 0.05 87 1011.7
20260903225034 28 120 1.6 6.4 0.00 0.05 0.05 87 1011.3
20260903224033 28 134 1.6 6.4 0.00 0.05 0.05 87 1011.3
20260903223032 28 147 3.2 4.8 0.00 0.05 0.05 87 1011.0
20260903222031 28 99 1.6 8.0 0.00 0.05 0.05 87 1011.0
20260903221030 29 177 3.2 8.0 0.00 0.05 0.05 86 1011.0
20260903215958 29 112 3.2 6.4 0.00 0.05 0.05 85 1011.3
20260903214957 29 121 1.6 4.8 0.00 0.05 0.05 84 1011.3
20260903213721 29 190 3.2 6.4 0.00 0.05 0.05 84 1011.0
20260903212720 29 140 1.6 4.8 0.00 0.05 0.05 83 1010.6
20260903211719 30 121 1.6 4.8 0.00 0.05 0.05 83 1010.6
20260903210718 30 123 1.6 4.8 0.00 0.05 0.05 82 1010.6
20260903205646 30 117 1.6 3.2 0.00 0.05 0.05 82 1010.6
20260903204645 30 84 3.2 6.4 0.00 0.05 0.05 81 1010.6
20260903203644 30 120 3.2 6.4 0.00 0.05 0.05 81 1010.6
20260903202643 30 73 1.6 4.8 0.00 0.05 0.05 80 1011.0
20260903201643 30 129 1.6 4.8 0.00 0.05 0.05 79 1011.0
20260903200642 30 102 1.6 4.8 0.00 0.05 0.05 78 1011.0
20260903195641 30 87 1.6 8.0 0.00 0.05 0.05 80 1011.3
20260903194640 30 134 3.2 8.0 0.00 0.05 0.05 80 1011.3
20260903193608 30 65 3.2 8.0 0.00 0.05 0.05 81 1011.7
20260903192607 30 53 3.2 9.7 0.00 0.05 0.05 80 1011.7
20260903191535 30 135 3.2 11.3 0.00 0.05 0.05 81 1011.7
20260903190534 31 180 1.6 6.4 0.00 0.05 0.05 80 1011.7
20260903185534 31 140 1.6 6.4 0.00 0.05 0.05 79 1012.0
20260903184533 31 111 1.6 8.0 0.00 0.05 0.05 80 1012.0
20260903183501 30 42 3.2 8.0 0.00 0.05 0.05 81 1012.0
20260903182429 30 119 3.2 8.0 0.00 0.05 0.05 83 1012.0
20260903181428 30 132 1.6 6.4 0.00 0.05 0.05 83 1012.3
20260903180356 30 136 1.6 4.8 0.00 0.05 0.05 84 1012.3
20260903175355 29 85 3.2 4.8 0.00 0.05 0.05 84 1012.3
20260903174354 29 114 1.6 4.8 0.00 0.05 0.05 84 1012.7
20260903173353 29 112 1.6 4.8 0.00 0.05 0.05 86 1012.7
20260903172353 29 149 1.6 4.8 0.00 0.05 0.05 85 1012.7
20260903171352 28 137 1.6 4.8 0.00 0.05 0.05 86 1012.7
20260903170351 28 120 3.2 4.8 0.00 0.05 0.05 85 1012.7
20260903165339 28 151 1.6 4.8 0.00 0.05 0.05 86 1013.0
20260903164338 28 107 1.6 3.2 0.00 0.05 0.05 87 1013.0
20260903163337 28 123 1.6 4.8 0.00 0.05 0.05 85 1013.3
20260903162336 27 193 0.0 6.4 0.00 0.05 0.05 86 1013.3
20260903161335 27 109 3.2 6.4 0.00 0.13 0.05 88 1013.3
20260903160335 27 115 1.6 3.2 0.00 0.13 0.05 90 1013.3
20260903155306 27 120 0.0 3.2 0.00 0.13 0.05 91 1013.3
20260903154302 27 79 1.6 1.6 0.00 0.13 0.05 92 1013.0
20260903153301 26 37 1.6 4.8 0.00 0.13 0.05 94 1013.0
20260903152300 26 70 1.6 6.4 0.00 0.13 0.05 94 1013.0
20260903151259 26 132 3.2 4.8 0.03 0.13 0.05 95 1013.0
20260903150258 26 151 1.6 4.8 0.03 0.13 0.05 95 1013.3
20260903145258 25 8 3.2 6.4 0.05 0.15 0.05 96 1013.3
20260903144257 25 84 1.6 4.8 0.05 0.15 0.05 97 1013.3
20260903143256 26 163 1.6 1.6 0.05 0.15 0.05 97 1013.0
20260903142255 26 127 0.0 6.4 0.05 0.15 0.05 96 1013.0
20260903141255 26 101 1.6 4.8 0.03 0.13 0.03 96 1013.3
20260903140253 26 128 1.6 4.8 0.03 0.13 0.03 95 1013.3
20260903135252 26 126 1.6 3.2 0.00 0.10 0.00 94 1013.0
20260903134252 27 176 1.6 1.6 0.00 0.10 0.00 95 1013.0
20260903133251 26 160 0.0 1.6 0.00 0.10 0.00 95 1013.0
20260903132250 26 159 0.0 1.6 0.00 0.10 0.00 97 1013.0
20260903131249 25 159 0.0 1.6 0.00 0.10 0.00 97 1013.0
20260903130248 25 170 0.0 8.0 0.00 0.10 0.00 96 1013.0
20260903125247 26 154 3.2 8.0 0.00 0.10 0.00 96 1013.0
20260903124247 26 178 3.2 6.4 0.00 0.10 0.00 97 1013.0
20260903123246 26 153 1.6 3.2 0.00 0.10 0.00 98 1013.0
20260903122245 26 169 0.0 1.6 0.00 0.10 0.00 99 1012.7
20260903121244 25 167 0.0 1.6 0.00 0.10 0.00 99 1012.7
20260903120244 25 44 0.0 0.0 0.00 0.10 0.00 99 1012.7
20260903115243 25 44 0.0 0.0 0.00 0.10 0.00 99 1012.3
20260903114242 24 44 0.0 0.0 0.00 0.10 0.00 99 1012.3
20260903113242 24 44 0.0 0.0 0.00 0.10 0.00 99 1012.3
20260903112210 23 44 0.0 0.0 0.00 0.10 0.00 99 1012.3
20260903111209 23 44 0.0 0.0 0.00 0.10 0.00 99 1012.0
20260903110137 23 44 0.0 0.0 0.00 0.10 0.00 99 1011.6
20260903105136 24 44 0.0 0.0 0.00 0.10 0.00 99 1011.6
20260903104136 24 44 0.0 0.0 0.00 0.10 0.00 99 1011.6
20260903103135 24 44 0.0 0.0 0.00 0.10 0.00 98 1011.6
20260903102134 24 44 0.0 0.0 0.00 0.10 0.00 98 1011.3
20260903101102 24 44 0.0 0.0 0.00 0.10 0.00 98 1011.3
20260903095101 24 44 0.0 0.0 0.00 0.10 0.00 98 1011.0
20260903094029 24 44 0.0 0.0 0.00 0.10 0.00 98 1011.0
20260903093028 24 44 0.0 0.0 0.00 0.10 0.00 98 1011.0
20260903092027 24 44 0.0 0.0 0.00 0.10 0.00 98 1011.0
20260903091026 24 44 0.0 0.0 0.00 0.10 0.00 98 1011.3
20260903090025 25 44 0.0 0.0 0.00 0.10 0.00 98 1011.3
20260903085024 25 44 0.0 0.0 0.00 0.10 0.00 98 1011.3
20260903084023 25 44 0.0 0.0 0.00 0.10 0.00 98 1011.0
20260903083023 25 44 0.0 0.0 0.00 0.10 0.00 98 1011.0
20260903081951 25 44 0.0 0.0 0.00 0.10 0.00 98 1011.0
20260903080950 25 44 0.0 1.6 0.00 0.10 0.00 98 1011.0
20260903075949 25 44 0.0 1.6 0.00 0.10 0.00 97 1011.0
20260903074948 25 44 1.6 1.6 0.00 0.10 0.00 97 1011.0
20260903073947 25 44 0.0 0.0 0.00 0.10 0.00 97 1011.0
20260903072946 25 40 0.0 1.6 0.00 0.10 0.00 97 1011.3
20260903071844 25 36 1.6 1.6 0.00 0.10 0.00 97 1011.3
20260903070843 25 36 0.0 1.6 0.00 0.10 0.00 97 1011.3
20260903065842 25 36 1.6 1.6 0.00 0.10 0.00 97 1011.7
20260903064841 25 36 0.0 0.0 0.00 0.10 0.00 97 1011.7
20260903063840 25 36 0.0 0.0 0.00 0.10 0.00 97 1011.7
20260903062840 25 36 0.0 0.0 0.00 0.10 0.00 97 1012.0